Total_Precipitation_Accumulation
1.32 1.37 1.34 1.42 1.53 1.80 1.99 1.94 1.74 1.71 1.70 1.68 1.66 1.71 1.85 1.97 2.08 2.20 2.27 2.26 2.26 2.40 2.34 2.32 2.43 2.53 2.78 2.74 2.80 2.80 2.72 2.66 2.61 2.33 1.96 1.97 2.26 2.35 2.21 1.95 1.77 1.81 1.67
1.13 1.20 1.28 1.31 1.41 1.52 1.64 1.67 1.60 1.48 1.43 1.47 1.51 1.50 1.59 1.79 1.92 1.94 1.97 1.96 1.98 2.09 2.16 2.12 2.19 2.28 2.38 2.60 2.74 2.72 2.75 2.73 2.73 2.64 2.26 2.07 2.09 2.22 2.28 2.22 1.91 1.76 1.70
1.05 1.15 1.26 1.26 1.26 1.26 1.29 1.25 1.28 1.27 1.29 1.31 1.41 1.47 1.52 1.61 1.76 1.78 1.81 1.75 1.74 1.80 1.93 2.00 2.08 2.14 2.16 2.31 2.30 2.38 2.53 2.71 2.82 2.73 2.56 2.33 2.20 2.21 2.28 2.23 2.13 2.12 1.87
1.16 1.24 1.31 1.32 1.33 1.32 1.29 1.26 1.27 1.25 1.27 1.35 1.51 1.58 1.59 1.61 1.61 1.67 1.75 1.76 1.64 1.57 1.62 1.66 1.79 1.94 1.99 2.19 2.15 2.16 2.33 2.58 2.87 2.88 2.74 2.52 2.42 2.39 2.37 2.34 2.35 2.29 2.18
1.05 1.18 1.26 1.35 1.42 1.36 1.24 1.17 1.24 1.22 1.21 1.32 1.45 1.58 1.63 1.62 1.57 1.67 1.75 1.78 1.70 1.51 1.44 1.47 1.53 1.70 1.99 2.10 2.06 2.28 2.45 2.50 2.66 2.80 2.77 2.71 2.61 2.49 2.37 2.29 2.33 2.35 2.36
0.97 1.06 1.26 1.37 1.32 1.27 1.17 1.12 1.12 1.12 1.13 1.20 1.32 1.50 1.60 1.56 1.99 1.99 1.78 1.72 1.67 1.52 1.39 1.36 1.35 1.38 1.62 1.95 2.12 2.27 2.40 2.47 2.49 2.53 2.58 2.51 2.50 2.47 2.57 2.56 2.47 2.38 2.33
0.91 1.05 1.26 1.30 1.21 1.14 1.17 1.18 1.11 1.08 1.13 1.20 1.24 1.25 1.35 1.67 1.78 1.51 1.53 1.49 1.58 1.48 1.35 1.26 1.17 1.17 1.35 1.44 1.60 1.75 1.93 2.24 2.46 2.50 2.39 2.23 2.35 2.38 2.51 2.56 2.48 2.39 2.26
0.82 0.95 1.13 1.17 1.16 1.19 1.17 1.14 1.05 0.99 1.00 1.05 1.09 1.13 1.19 1.35 1.43 1.32 1.40 1.27 1.40 1.39 1.29 1.24 1.22 1.22 1.29 1.35 1.50 1.64 1.61 1.67 1.91 1.98 2.01 2.05 2.12 2.32 2.45 2.50 2.58 2.51 2.44
0.68 0.82 0.93 0.96 1.05 1.10 1.04 1.04 0.99 0.91 0.91 0.94 0.99 1.05 1.12 1.13 1.21 1.21 1.28 1.35 1.47 1.43 1.30 1.27 1.25 1.21 1.45 1.60 1.56 1.60 1.65 1.61 1.73 1.89 2.10 2.11 2.07 2.11 2.25 2.30 2.43 2.49 2.47
0.61 0.74 0.84 0.86 0.89 0.94 1.01 1.00 1.00 0.95 0.92 0.93 0.97 0.98 1.03 1.08 1.25 1.12 1.20 1.34 1.44 1.46 1.43 1.34 1.47 1.44 1.58 1.62 1.55 1.66 1.69 1.51 1.43 1.52 1.68 1.73 1.67 1.73 1.98 1.97 2.19 2.38 2.29
0.51 0.62 0.71 0.73 0.81 0.92 1.03 1.07 1.10 1.05 0.98 0.97 1.02 1.04 1.00 1.08 1.26 1.24 1.25 1.25 1.43 1.48 1.51 1.43 1.30 1.45 1.47 1.55 1.61 1.63 1.80 1.69 1.54 1.57 1.66 1.64 1.55 1.55 1.64 1.73 1.87 2.17 2.25
0.41 0.50 0.64 0.74 0.82 0.91 1.04 1.10 1.09 1.09 1.10 1.11 1.08 1.10 1.07 1.06 1.14 1.21 1.25 1.28 1.38 1.36 1.44 1.42 1.38 1.52 1.41 1.37 1.37 1.51 1.84 1.79 1.60 1.60 1.63 1.62 1.56 1.48 1.53 1.58 1.70 1.82 1.91
0.38 0.42 0.50 0.57 0.62 0.73 0.86 0.99 1.05 1.04 1.06 1.07 1.13 1.19 1.20 1.12 1.19 1.34 1.22 1.21 1.27 1.25 1.24 1.35 1.35 1.37 1.30 1.21 1.26 1.40 1.53 1.66 1.68 1.61 1.50 1.46 1.47 1.50 1.55 1.52 1.57 1.71 1.70
0.41 0.43 0.45 0.47 0.49 0.57 0.72 0.79 0.85 0.90 0.97 1.06 1.14 1.24 1.33 1.28 1.21 1.20 1.14 1.15 1.18 1.10 1.05 1.10 1.13 1.14 1.12 1.10 1.15 1.20 1.31 1.50 1.65 1.58 1.45 1.46 1.52 1.59 1.63 1.53 1.54 1.65 1.69
0.38 0.42 0.47 0.50 0.51 0.55 0.61 0.74 0.83 0.88 0.95 1.03 1.10 1.24 1.33 1.34 1.35 1.47 1.41 1.31 1.27 1.25 1.20 1.09 1.03 1.08 1.16 1.19 1.18 1.16 1.23 1.37 1.50 1.49 1.44 1.44 1.53 1.62 1.62 1.58 1.57 1.61 1.62
0.42 0.41 0.43 0.48 0.55 0.59 0.63 0.72 0.81 0.82 0.83 0.87 0.93 1.00 1.07 1.16 1.23 1.24 1.26 1.25 1.22 1.21 1.28 1.24 1.20 1.23 1.26 1.26 1.26 1.19 1.14 1.19 1.32 1.42 1.45 1.41 1.42 1.52 1.59 1.62 1.63 1.64 1.61
0.52 0.50 0.49 0.50 0.57 0.65 0.68 0.70 0.76 0.78 0.79 0.81 0.82 0.88 0.94 1.00 1.01 1.06 1.13 1.20 1.23 1.21 1.24 1.20 1.15 1.09 1.08 1.06 1.10 1.11 1.10 1.09 1.16 1.29 1.37 1.41 1.42 1.49 1.59 1.64 1.66 1.72 1.69
0.42 0.46 0.50 0.54 0.56 0.62 0.71 0.78 0.84 0.90 0.85 0.77 0.78 0.85 0.86 0.87 0.90 0.94 1.04 1.08 1.03 1.02 1.01 1.05 1.03 1.00 0.96 0.98 0.99 0.97 1.00 1.04 1.07 1.14 1.23 1.30 1.39 1.47 1.57 1.61 1.60 1.60 1.64
0.38 0.46 0.55 0.60 0.60 0.62 0.74 0.88 0.93 0.95 0.92 0.83 0.75 0.75 0.79 0.76 0.80 0.87 0.92 0.92 0.92 0.84 0.82 0.88 0.93 0.95 0.90 0.87 0.87 0.87 0.89 0.93 0.98 1.04 1.10 1.15 1.24 1.33 1.40 1.46 1.51 1.59 1.60
0.40 0.52 0.62 0.68 0.64 0.65 0.70 0.75 0.78 0.84 0.85 0.82 0.80 0.82 0.81 0.76 0.74 0.78 0.81 0.82 0.87 0.86 0.88 0.91 0.93 0.93 0.92 0.91 0.91 0.88 0.89 0.92 0.95 1.01 1.11 1.21 1.25 1.29 1.29 1.33 1.42 1.48 1.45
0.50 0.53 0.58 0.65 0.64 0.62 0.64 0.64 0.68 0.74 0.73 0.73 0.74 0.80 0.85 0.78 0.77 0.78 0.79 0.80 0.82 0.87 0.92 0.94 0.96 1.01 1.00 0.97 0.97 0.97 0.96 0.95 0.95 0.99 1.03 1.08 1.15 1.21 1.26 1.31 1.32 1.36 1.41
0.52 0.55 0.55 0.63 0.67 0.63 0.62 0.65 0.70 0.72 0.72 0.70 0.69 0.71 0.76 0.71 0.73 0.76 0.78 0.84 0.86 0.89 0.92 0.92 0.94 0.98 1.03 1.02 1.00 1.02 1.03 1.01 0.98 1.00 1.04 1.05 1.09 1.16 1.24 1.28 1.31 1.31 1.31
0.55 0.56 0.57 0.62 0.65 0.65 0.65 0.68 0.73 0.77 0.76 0.73 0.73 0.73 0.74 0.70 0.70 0.72 0.78 0.86 0.92 0.92 0.91 0.90 0.93 0.99 1.02 1.02 1.00 1.00 1.02 1.00 0.99 1.02 1.09 1.13 1.14 1.17 1.23 1.30 1.34 1.38 1.40
0.56 0.59 0.63 0.66 0.67 0.71 0.76 0.79 0.78 0.79 0.81 0.79 0.76 0.75 0.75 0.74 0.75 0.75 0.79 0.86 0.90 0.89 0.88 0.86 0.87 0.93 0.98 1.00 1.01 0.99 0.97 0.99 0.98 1.00 1.08 1.19 1.21 1.18 1.18 1.23 1.30 1.34 1.40
0.54 0.56 0.60 0.66 0.69 0.73 0.79 0.82 0.79 0.79 0.81 0.85 0.88 0.84 0.80 0.77 0.76 0.78 0.79 0.83 0.85 0.84 0.82 0.81 0.85 0.88 0.89 0.89 0.90 0.94 1.10 1.13 1.08 1.06 1.06 1.15 1.22 1.23 1.24 1.27 1.30 1.35 1.42
0.54 0.57 0.63 0.71 0.74 0.76 0.81 0.85 0.83 0.80 0.82 0.85 0.89 0.93 0.91 0.85 0.79 0.78 0.80 0.83 0.83 0.80 0.79 0.78 0.79 0.81 0.84 0.86 0.88 0.96 1.03 0.99 1.01 1.10 1.09 1.11 1.19 1.25 1.29 1.33 1.33 1.40 1.49